This is the latest recevied weather packets stored in our database for station/object WD5U-1. If no packets are shown the sender has not sent any weather packets the latest 10 day(s).
| Time | Temp. | Humidity | Pressure | Rain* | Wind** | Luminosity | Snow |
|---|---|---|---|---|---|---|---|
| 1777995016 | 23.89° C | 80% | 1005.9 hPa | 0 mm | - | - | - |
| 1777994177 | 23.89° C | 80% | 1005.5 hPa | 0 mm | - | - | - |
| 1777993821 | 23.33° C | 79% | 1005.6 hPa | 0 mm | - | - | - |
| 1777993457 | 23.33° C | 80% | 1005.3 hPa | 0 mm | - | - | - |
| 1777993337 | 23.33° C | 80% | 1005.4 hPa | 0 mm | - | - | - |
| 1777992505 | 23.89° C | 80% | 1005.5 hPa | 0 mm | - | - | - |
| 1777992141 | 23.33° C | 81% | 1005.5 hPa | 0 mm | - | - | - |
| 1777991899 | 22.78° C | 82% | 1005.5 hPa | 0 mm | - | - | - |
| 1777990582 | 22.22° C | 84% | 1005.5 hPa | 0 mm | - | - | - |
| 1777989256 | 21.67° C | 86% | 1005 hPa | 0 mm | - | - | - |
| 1777988780 | 21.11° C | 87% | 1005.2 hPa | 0 mm | - | - | - |
| 1777988062 | 21.11° C | 88% | 1005.1 hPa | 0 mm | - | - | - |
| 1777987697 | 20.56° C | 88% | 1005.1 hPa | 0 mm | - | - | - |
| 1777986422 | 20.56° C | 89% | 1005.2 hPa | 0 mm | - | - | - |
| 1777985807 | 20° C | 90% | 1005 hPa | 0 mm | - | - | - |
| 1777985179 | 20° C | 91% | 1005 hPa | 0 mm | - | - | - |
| 1777985065 | 20° C | 91% | 1004.8 hPa | 0 mm | - | - | - |
| 1777984600 | 19.44° C | 91% | 1004.8 hPa | 0 mm | - | - | - |
| 1777984337 | 19.44° C | 91% | 1004.9 hPa | 0 mm | - | - | - |
| 1777983983 | 19.44° C | 91% | 1004.9 hPa | 0 mm | - | - | - |
| 1777983496 | 19.44° C | 91% | 1004.6 hPa | 0 mm | - | - | - |
| 1777983266 | 19.44° C | 91% | 1004.7 hPa | 0 mm | - | - | - |
| 1777982426 | 19.44° C | 92% | 1004.5 hPa | 0 mm | - | - | - |
| 1777981584 | 19.44° C | 92% | 1004.3 hPa | 0 mm | - | - | - |
| 1777980622 | 19.44° C | 92% | 1004.2 hPa | 0 mm | - | - | - |
* Rain latest hour (hover to see other rain measurements)
** Current wind speed in m/s (hover to see current wind gust speed)